Shelton, WA

9:45 AM PDT on March 29, 2017 (GMT -0700)
Sanderson

Weather History for KSHN - April, 2013

Change the Weather History Date:

Friday, April 5, 2013

  Actual Average Record
Temperature  
Mean Temperature 50 °F -  
Max Temperature 55 °F 57 °F 76 °F (1977)
Min Temperature 46 °F 38 °F 28 °F (2006)
Degree Days  
Heating Degree Days 15    
Moisture  
Dew Point 48 °F    
Average Humidity 93    
Maximum Humidity 100    
Minimum Humidity 83    
Precipitation  
Precipitation 1.40 in - - ()
Sea Level Pressure  
Sea Level Pressure 29.81 in    
Wind  
Wind Speed 11 mph (SW)    
Max Wind Speed 17 mph    
Max Gust Speed 26 mph    
Visibility 5 miles    
Events Rain    
Averages and records for this station are not official NWS values.
T = Trace of Precipitation, MM = Missing Value Source: NWS Daily Summary

Daily Weather History Graph

Daily Weather History Graph

Search for Another Location

Airport or City:

Trip Planner

Search our weather history database for the weather conditions in past years. The results will help you decide how hot, cold, wet, or windy it might be!

Date:

Astronomy

Apr. 05, 2013 Rise Set
Actual Time 6:42 AM PDT 7:48 PM PDT
Civil Twilight 6:11 AM PDT 8:19 PM PDT
Nautical Twilight 5:34 AM PDT 8:57 PM PDT
Astronomical Twilight 4:54 AM PDT 9:37 PM PDT
Moon 4:11 AM PDT (4/5) 3:01 PM PDT (4/5)
Length of Visible Light 14h 07m
Length of Day
13h 05m
Waning Crescent, 22% of the Moon is Illuminated
Apr 5
Waning Crescent
Apr 10
New
Apr 18
First Quarter
Apr 25
Full
May 2
Last Quarter

Hourly Weather History & Observations

Time (PDT) Temp. Windchill Dew Point Humidity Pressure Visibility Wind Dir Wind Speed Gust Speed Precip Events Conditions
12:19 AM 51.8 °F - 50.0 °F 94% 29.72 in 2.5 mi SSW 10.4 mph - 0.07 in Rain Rain
12:21 AM 51.8 °F - 50.0 °F 94% 29.72 in 3.0 mi SSW 10.4 mph - 0.07 in Rain Rain
12:37 AM 51.8 °F - 48.2 °F 88% 29.72 in 10.0 mi SSW 15.0 mph - 0.08 in Rain Light Rain
12:53 AM 51.1 °F - 48.0 °F 89% 29.73 in 7.0 mi SW 17.3 mph 26.5 mph 0.10 in Rain Light Rain
1:53 AM 50.0 °F - 46.9 °F 89% 29.72 in 8.0 mi South 15.0 mph - 0.05 in Rain Light Rain
2:53 AM 50.0 °F - 48.0 °F 93% 29.73 in 5.0 mi SSW 11.5 mph - 0.10 in Rain Rain
3:51 AM 50.0 °F - 48.2 °F 94% 29.73 in 2.5 mi SSW 11.5 mph - 0.29 in Rain Rain
3:53 AM 50.0 °F - 48.0 °F 93% 29.74 in 2.5 mi SSW 11.5 mph - 0.30 in Rain Rain
4:07 AM 50.0 °F - 48.2 °F 94% 29.73 in 4.0 mi SSW 6.9 mph - 0.06 in Rain Light Rain
4:44 AM 50.0 °F - 48.2 °F 94% 29.75 in 3.0 mi SW 15.0 mph - 0.12 in Rain Light Rain
4:53 AM 50.0 °F - 48.9 °F 96% 29.75 in 3.0 mi SSW 15.0 mph 20.7 mph 0.13 in Rain Light Rain
5:25 AM 50.0 °F - 48.2 °F 94% 29.75 in 4.0 mi SW 15.0 mph 20.7 mph 0.03 in Rain Light Rain
5:53 AM 50.0 °F - 48.0 °F 93% 29.77 in 4.0 mi SW 15.0 mph 23.0 mph 0.05 in Rain Light Rain
6:43 AM 48.2 °F - 48.2 °F 100% 29.78 in 6.0 mi SSW 12.7 mph - 0.03 in Rain Light Rain
6:53 AM 48.9 °F - 48.0 °F 97% 29.79 in 7.0 mi SSW 9.2 mph - 0.03 in Rain Light Rain
7:13 AM 50.0 °F - 48.2 °F 94% 29.79 in 2.5 mi SSW 17.3 mph 24.2 mph 0.02 in Rain Light Rain
7:20 AM 48.2 °F - 48.2 °F 100% 29.80 in 3.0 mi SSW 13.8 mph - 0.02 in Rain Light Rain
7:27 AM 50.0 °F - 46.4 °F 87% 29.80 in 2.5 mi SW 12.7 mph - 0.04 in Rain Rain
7:53 AM 48.9 °F - 48.0 °F 97% 29.82 in 2.5 mi SW 9.2 mph - 0.07 in Rain Light Rain
8:12 AM 48.2 °F - 48.2 °F 100% 29.82 in 2.0 mi SW 11.5 mph 26.5 mph 0.03 in Rain Light Rain
8:23 AM 48.2 °F - 48.2 °F 100% 29.82 in 2.5 mi SW 15.0 mph 23.0 mph 0.05 in Rain Light Rain
8:41 AM 48.2 °F - 48.2 °F 100% 29.83 in 1.5 mi SW 9.2 mph 18.4 mph 0.07 in Rain Light Rain
8:50 AM 48.2 °F - 48.2 °F 100% 29.83 in 1.8 mi SW 8.1 mph - 0.08 in Rain Light Rain
8:53 AM 48.9 °F - 48.0 °F 97% 29.84 in 2.0 mi SW 6.9 mph - 0.09 in Rain Light Rain
9:00 AM 50.0 °F - 48.2 °F 94% 29.84 in 2.5 mi SW 8.1 mph - 0.00 in Rain Light Rain
9:09 AM 50.0 °F - 48.2 °F 94% 29.84 in 4.0 mi SSW 6.9 mph - 0.00 in Rain Light Rain
9:53 AM 50.0 °F - 48.0 °F 93% 29.86 in 5.0 mi SW 12.7 mph 21.9 mph 0.02 in Rain Light Rain
10:01 AM 50.0 °F - 48.2 °F 94% 29.85 in 4.0 mi SW 12.7 mph - 0.00 in Rain Light Rain
10:22 AM 51.8 °F - 48.2 °F 88% 29.85 in 10.0 mi WSW 16.1 mph 21.9 mph 0.00 in   Overcast
10:44 AM 51.8 °F - 48.2 °F 88% 29.86 in 10.0 mi SW 12.7 mph 24.2 mph 0.00 in   Overcast
10:53 AM 52.0 °F - 48.9 °F 89% 29.87 in 10.0 mi SW 13.8 mph 24.2 mph 0.00 in   Overcast
11:53 AM 51.1 °F - 48.9 °F 92% 29.88 in 6.0 mi SW 11.5 mph 19.6 mph 0.01 in Rain Light Rain
12:21 PM 51.8 °F - 48.2 °F 88% 29.87 in 10.0 mi SW 16.1 mph - 0.00 in Rain Light Rain
12:32 PM 51.8 °F - 48.2 °F 88% 29.87 in 9.0 mi SW 11.5 mph 21.9 mph 0.00 in   Overcast
12:53 PM 53.1 °F - 50.0 °F 89% 29.88 in 6.0 mi WSW 11.5 mph - 0.00 in Rain Light Rain
1:53 PM 54.0 °F - 51.1 °F 90% 29.87 in 9.0 mi SW 13.8 mph - 0.00 in   Overcast
2:53 PM 53.1 °F - 48.0 °F 83% 29.87 in 6.0 mi SSW 12.7 mph - 0.00 in Rain Light Rain
2:58 PM 51.8 °F - 48.2 °F 88% 29.86 in 2.5 mi SSW 10.4 mph - 0.01 in Rain Rain
3:05 PM 51.8 °F - 50.0 °F 94% 29.86 in 3.0 mi SSW 9.2 mph - 0.02 in Rain Light Rain
3:53 PM 52.0 °F - 50.0 °F 93% 29.87 in 4.0 mi SSW 9.2 mph - 0.08 in Rain Light Rain
4:14 PM 51.8 °F - 48.2 °F 88% 29.85 in 9.0 mi SSW 13.8 mph 18.4 mph 0.01 in Rain Light Rain
4:53 PM 51.1 °F - 48.9 °F 92% 29.86 in 6.0 mi SSW 4.6 mph - 0.03 in Rain Light Rain
5:06 PM 51.8 °F - 48.2 °F 88% 29.85 in 5.0 mi SSW 4.6 mph - 0.01 in Rain Light Rain
5:21 PM 51.8 °F - 48.2 °F 88% 29.84 in 6.0 mi South 3.5 mph - 0.02 in Rain Light Rain
5:53 PM 50.0 °F - 48.0 °F 93% 29.85 in 8.0 mi SSW 10.4 mph - 0.05 in Rain Light Rain
6:06 PM 50.0 °F - 48.2 °F 94% 29.84 in 9.0 mi SW 6.9 mph - 0.00 in Rain Light Rain
6:40 PM 48.2 °F - 46.4 °F 93% 29.84 in 7.0 mi SW 11.5 mph 19.6 mph 0.02 in Rain Light Rain
6:53 PM 48.9 °F - 46.0 °F 90% 29.84 in 6.0 mi SW 10.4 mph - 0.03 in Rain Light Rain
7:53 PM 48.0 °F - 46.9 °F 96% 29.82 in 7.0 mi Calm Calm - 0.02 in Rain Light Rain
8:53 PM 48.0 °F - 46.9 °F 96% 29.81 in 6.0 mi Calm Calm - 0.03 in Rain Light Rain
9:53 PM 46.9 °F - 46.9 °F 100% 29.80 in 7.0 mi Calm Calm - 0.03 in Rain Light Rain
10:53 PM 46.9 °F - 46.9 °F 100% 29.75 in 5.0 mi NNE 4.6 mph - 0.10 in Rain Light Rain
11:02 PM 46.4 °F 44.3 °F 46.4 °F 100% 29.74 in 5.0 mi NE 4.6 mph - 0.01 in Rain Light Rain
11:12 PM 48.2 °F - 46.4 °F 93% 29.73 in 6.0 mi ENE 3.5 mph - 0.02 in Rain Light Rain
11:21 PM 48.2 °F - 46.4 °F 93% 29.72 in 5.0 mi Variable 4.6 mph - 0.04 in Rain Rain
11:53 PM 48.0 °F - 46.9 °F 96% 29.71 in 7.0 mi ENE 3.5 mph - 0.08 in Rain Light Rain